Location: Stuttgart
(48.8069°N, 9.1544°E)
Time: 03:58:44
(UTC+02:00)

ISS - Pass Details

Date: 10 May 2021
Orbit: 417 x 422 km, 51.6° (Epoch: 15 June)

Event Time Altitude Azimuth Distance (km) Brightness Sun altitude
Exits shadow 04:22:02 - 286° (WNW) 2,111 -0.5 -12.2°
Reaches altitude 10° 04:23:30 10° 290° (WNW) 1,510 -1.2 -12.0°
Maximum altitude 04:26:52 58° 11° (N) 500 -3.1 -11.6°
Drops below altitude 10° 04:30:13 10° 91° (E) 1,509 -0.3 -11.2°
Sets 04:32:20 0° 95° (E) 2,374 0.7 -11.0°
